Regional Weather Roundup
Issued by NWS New Orleans/Baton Rouge, LA

Home | Current Version | Previous Version | Text Only | Print | Product List | Glossary Off
Versions: 1 2 3 4 5 6 7 8 9 10 11 12 13 14 15 16 17 18 19 20 21 22 23 24 25 26 27 28 29 30 31 32 33 34 35 36 37 38 39 40 41 42 43 44 45 46 47 48 49 50

810
ASUS44 KLIX 180910
RWRLIX
NEW ORLEANS REGIONAL WEATHER ROUNDUP
NATIONAL WEATHER SERVICE NEW ORLEANS LA
300 AM CST THU DEC 18 2014

NOTE: "FAIR" INDICATES FEW OR NO CLOUDS BELOW 12,000 FEET WITH NO
      SIGNIFICANT WEATHER AND/OR OBSTRUCTIONS TO VISIBILITY.
      SKY/WX - SKY CONDITION AND SIGNIFICANT WEATHER.
      TMP - AIR TEMPERATURE.     DP    - DEWPOINT TEMPERATURE.
      RH  - RELATIVE HUMIDITY.   PRES  - PRESSURE.
      HI  - HEAT INDEX.          WCI   - WIND CHILL INDEX.

*  THESE STATIONS ARE NOT NWS OR FAA STATIONS AND ARE NOT UNDER
   NWS QUALITY CONTROL.

LAZ038-040-048-061>063-065>067-069-181000-
SOUTHEAST LOUISIANA

CITY           SKY/WX    TMP DP  RH WIND       PRES   REMARKS
N.O. AUDUBON   NOT AVBL
N.O. INTL ARPT CLOUDY    50  43  77 CALM      30.17S
N.O. LAKEFRONT CLOUDY    56  48  74 E9        30.18R
N.O. DOWNTOWN*   N/A     55  43  62 CALM      30.17S
SLIDELL        CLOUDY    44  41  89 CALM      30.18S
BATON ROUGE    CLOUDY    46  42  86 E6        30.17F
BOOTHVILLE     MOCLDY    55  50  83 NE6       30.16S
BELLE CHASSE   CLOUDY    50  45  83 NE3       30.17R
BOGALUSA*        N/A     44  40  88 CALM      30.21S
GALLIANO*      CLOUDY    53  49  86 MISG      30.16S
NEW ROADS*       N/A     47  43  87 CALM      30.17F
GONZALES*        N/A     46  45  94 CALM      30.18S
HAMMOND*       NOT AVBL
HOUMA*         PTCLDY    49  47  94 NW3       30.16F
PORT FOURCHON* SUNNY     61  54  77 E6        30.18S

$$

MSZ070-080>082-181000-
SOUTHERN MISSISSIPPI

CITY           SKY/WX    TMP DP  RH WIND       PRES   REMARKS
MCCOMB         CLOUDY    44  41  89 E3        30.18S
GULFPORT       MOCLDY    44  41  89 NW3       30.18S
BILOXI         MOCLDY    47  43  85 NE3       30.18S
PASCAGOULA     PTCLDY    38  38 100 CALM      30.18F

$$

COASTAL OBSERVATIONS
LAKE AND NEARSHORE STATIONS

STATION/POSITION TIME  TEMP    WIND        PRES    WAVE
                       AIR SEA DIR/SP/G            HT/PER
                 (UTC) (F)     (DEG/KT/KT) (MB)    (FT/S)
PASCAGOULA       0900   50      40/  7/  8 1021.4
WAVELAND YACHT   0900   51      60/  7/  8 1021.0
GRAND ISLE       0900   60 62  100/  6/ 10 1021.3
SOUTHWEST PASS   0900   57                 1020.9
NEW CANAL        0900   54 57   80/  5/  6 1022.0
SHELL BEACH      0900   56 59   80/  7/  8 1021.3

OFFSHORE STATIONS

STATION/POSITION TIME  TEMP    WIND        PRES    WAVE
                       AIR SEA DIR/SP/G            HT/PER
                 (UTC) (F)     (DEG/KT/KT) (MB)    (FT/S)
64 S DAUPHIN ISL 0900   63 74  100/  6/ 10 1020.2    1/ 7

$$




USA.gov is the U.S. government's official web portal to all federal, state and local government web resources and services.